Flag for Moldova Weather past 2 weeks in Chisinau, Moldova

Now
48 °F

Passing clouds.


Feels Like: 48 °F
Forecast: 45 / 51 °F
Wind: 2 mph from North

Location: Chisinau International Airport

Current Time: Mar 27, 2015 at 10:10:19 PM

Latest Report: Mar 27, 2015 at 9:30 PM


Visibility: N/A

Pressure: 29.83 "Hg

Humidity: 76%

Dew point: 41 °F

Location of ChisinauLocation

Historic Weather in Chisinau — Graph

°F

Chisinau temperature yesterday

Maximum temperature yesterday: 59 °F (at 4:00 PM)
Minimum temperature yesterday: 39 °F (at 12:30 AM)
Average temperature yesterday: 47 °F

Past Weeks' High & Low Weather Summary

 TemperatureHumidityPressure
High61 °F (Mar 22, 1:30 PM)93% (Mar 18, 8:30 PM)30.69 "Hg (Mar 18, 8:30 PM)
Low25 °F (Mar 24, 5:30 AM)19% (Mar 23, 4:30 PM)29.83 "Hg (Mar 27, 7:00 PM)
Average42 °F64%30.21 "Hg
* Reported Mar 12 9:00 PM — Mar 27 9:00 PM, Chisinau, Weather by CustomWeather, © 2015

Note: Actual official high and low records may vary slightly from our data, if they occured in-between our weather recording intervals... More about our weather records

Advertising

Chisinau weather history for previous 24 hours

 ConditionsComfort  
Time TempWeatherWind HumidityBarometerVisibility
9:00 PM
Fri, Mar 27
48 °FPassing clouds.2 mph71%29.83 "HgN/A
8:30 PM48 °FLight rain. Overcast.3 mph76%29.83 "HgN/A
8:00 PM50 °FPassing clouds.5 mph71%29.83 "HgN/A
7:30 PM50 °FPassing clouds.7 mph71%29.83 "HgN/A
7:00 PM50 °FPassing clouds.9 mph71%29.83 "HgN/A
6:30 PM50 °FPassing clouds.10 mph71%29.86 "HgN/A
6:00 PM50 °FLight rain. Partly sunny.9 mph71%29.86 "HgN/A
5:30 PM50 °FLight rain. Partly sunny.7 mph76%29.86 "HgN/A
5:00 PM52 °FLight rain. Partly sunny.3 mph62%29.86 "HgN/A
4:30 PM54 °FLight rain. Partly sunny.7 mph54%29.89 "HgN/A
4:00 PM54 °FScattered clouds.6 mph54%29.89 "HgN/A
3:30 PM54 °FPassing clouds.8 mph54%29.89 "HgN/A
3:00 PM54 °FPassing clouds.7 mph54%29.89 "HgN/A
2:30 PM54 °FPassing clouds.8 mph58%29.89 "HgN/A
2:00 PM54 °FPassing clouds.6 mph63%29.89 "HgN/A
1:30 PM54 °FScattered clouds.7 mph63%29.89 "HgN/A
1:00 PM52 °FScattered clouds.6 mph72%29.89 "HgN/A
12:30 PM50 °FPassing clouds.6 mph71%29.89 "HgN/A
12:00 PM50 °FPassing clouds.7 mph76%29.89 "HgN/A
11:30 AM50 °FScattered clouds.7 mph71%29.92 "HgN/A
11:00 AM48 °FScattered clouds.6 mph76%29.92 "HgN/A
10:30 AM48 °FPartly sunny.7 mph76%29.92 "HgN/A
10:00 AM48 °FPartly sunny.7 mph76%29.92 "HgN/A
9:30 AM46 °FPartly sunny.8 mph82%29.92 "Hg6 mi
9:00 AM45 °FLow clouds.9 mph81%29.92 "Hg6 mi
8:30 AM45 °FLow clouds.9 mph81%29.92 "Hg5 mi
8:00 AM43 °FLow clouds.8 mph87%29.92 "Hg4 mi
7:30 AM43 °FFog.7 mph87%29.92 "Hg3 mi
7:00 AM43 °FFog.7 mph87%29.92 "Hg3 mi
6:30 AM43 °FFog.6 mph87%29.92 "Hg3 mi
6:00 AM41 °FFog.7 mph87%29.92 "Hg3 mi
5:00 AM41 °FFog.6 mph87%29.92 "Hg2 mi
4:30 AM41 °FFog.6 mph87%29.92 "Hg2 mi
4:00 AM41 °FFog.8 mph87%29.92 "Hg2 mi
3:30 AM39 °FFog.7 mph93%29.92 "Hg1 mi
3:00 AM39 °FFog.6 mph87%29.95 "Hg1 mi
2:30 AM39 °FFog.8 mph87%29.95 "Hg1 mi
2:00 AM39 °FFog.10 mph87%29.95 "Hg1 mi
1:30 AM39 °FFog.7 mph87%29.95 "Hg1 mi
1:00 AM39 °FFog.8 mph87%29.98 "Hg1 mi
12:30 AM39 °FFog.7 mph87%29.98 "Hg2 mi
12:00 AM39 °FPassing clouds.5 mph87%29.98 "Hg3 mi
11:30 PM
Thu, Mar 26
41 °FPassing clouds.5 mph87%29.98 "Hg3 mi
11:00 PM41 °FPassing clouds.7 mph87%30.01 "HgN/A
10:30 PM43 °FPassing clouds.10 mph81%30.01 "HgN/A
10:00 PM43 °FPassing clouds.9 mph81%29.98 "HgN/A
Weather by CustomWeather, © 2015

See weather overviewHow to use our weather pages